Location: Newark
(15.4608°S, 41.1635°W)
Time: 16:46:53
(UTC+00:00)

Vanguard 2 - Visible Passes

Search period start: 26 February 2021 00:00
Search period end: 08 March 2021 00:00
Orbit: 552 x 2938 km, 32.9° (Epoch: 25 February)

Date Brightness Start Highest point End Pass type
(mag) Time Alt. Az. Time Alt. Az. Time Alt. Az.
26 Feb 10.3 00:04:07 10° SSW 00:04:22 11° SSW 00:04:22 11° SSW visible
26 Feb 11.7 04:41:23 10° NE 04:41:23 10° NE 04:41:35 10° NE visible
26 Feb 11.2 06:42:49 16° NNW 06:42:49 16° NNW 06:49:25 10° N visible
27 Feb 11.6 04:58:25 10° NNE 04:58:25 10° NNE 04:58:36 10° NNE visible
27 Feb 11.4 06:59:50 10° NNW 06:59:50 10° NNW 07:02:01 10° NNW visible
28 Feb 9.6 22:50:49 10° S 22:52:38 12° SSE 22:52:47 12° SSE visible
01 Mar 9.5 23:07:49 10° SSW 23:09:24 15° S 23:09:24 15° S visible
02 Mar 9.6 23:25:01 10° SSW 23:26:05 15° SSW 23:26:05 15° SSW visible
03 Mar 10.0 23:42:22 10° SW 23:42:46 12° SW 23:42:46 12° SW visible
04 Mar 9.4 21:54:29 10° S 21:55:28 11° SSE 21:56:30 10° SSE visible
05 Mar 9.0 22:11:06 10° SSW 22:13:34 15° SSE 22:14:50 14° SE visible
06 Mar 8.5 22:28:15 10° SSW 22:31:32 23° SSE 22:31:37 23° SSE visible
07 Mar 8.2 22:45:36 10° SW 22:48:26 33° S 22:48:26 33° S visible
